Regional Weather Roundup
Issued by NWS Wakefield, VA

Home | Current Version | Previous Version | Text Only | Print | Product List | Glossary On
Versions: 1 2 3 4 5 6 7 8 9 10 11 12 13 14 15 16 17 18 19 20 21 22 23 24 25 26 27 28 29 30 31 32 33 34 35 36 37 38 39 40 41 42 43 44 45 46 47 48 49 50
000
ASUS41 KAKQ 270410
RWRAKQ

REGIONAL WEATHER ROUNDUP
NATIONAL WEATHER SERVICE WAKEFIELD VA
1100 PM EST WED NOV 26 2014

Note: "fair" indicates few or no clouds below 12,000 feet with no
significant weather and/or obstructions to visibility. * = Denotes
station may not report precipitation (e.g., rain,snow,etc.),
thunder or fog.

VAZ042-051-052>054-056-270500-
NORTHERN VIRGINIA

CITY           SKY/WX    TMP DP  RH WIND       PRES   REMARKS
WASH NATIONAL  MOCLDY    40  33  76 W7        30.02R
DULLES         CLOUDY    35  32  88 NW7       30.01R
FORT BELVOIR   CLOUDY    37  34  86 W5        30.03R
QUANTICO       CLOUDY    38  34  85 NW3       30.04R
FREDERICKSBRG* CLOUDY    38  38 100 CALM      30.02F
STAFFORD*      CLOUDY    36  36 100 CALM      30.06F
WARRENTON      CLOUDY    36  36 100 CALM      30.01S
CULPEPER*      CLOUDY    36  36 100 CALM      30.02S
MANASSAS*      CLOUDY    37  37 100 CALM      30.02S
LEESBURG*      CLOUDY    36  36 100 CALM      30.02S
WINCHESTER     FOG       34  30  86 SE3       29.99S VSB 3/4
FRONT ROYAL*   MOCLDY    32  32 100 SW5       29.99R
LURAY*         FOG       34  34 100 CALM      29.99S VSB 1/4
$$

VAZ048-049-060>072-079>083-270500-
CENTRAL AND SOUTH CENTRAL VIRGINIA

CITY           SKY/WX    TMP DP  RH WIND       PRES   REMARKS
RICHMOND       CLOUDY    40  36  86 CALM      30.03F
CHESTERFIELD*  CLOUDY    37  27  65 CALM      30.05S
PETERSBURG*    CLOUDY    38  38  97 CALM      30.05S
HANOVER        CLOUDY    38  36  92 CALM      30.05S
TAPPAHANNOCK*  MOCLDY    38  34  85 W6        30.05R
QUINTON*       CLOUDY    38  36  94 CALM      30.05S
CHARLOTTSVILLE CLOUDY    36  35  96 SW3       30.01R FOG
GORDONSVILLE*  CLOUDY    35  35  99 CALM      30.00F FOG
ORANGE*        CLOUDY    36  36 100 CALM      30.02S FOG
LOUISA*        CLOUDY    37  36  93 CALM      30.00S
BUMPASS*       CLOUDY    37  36  96 CALM      30.02S
FARMVILLE*     CLOUDY    40  40 100 CALM        N/A
CREWE*         CLOUDY    38  37  96 CALM      30.02S
FORT PICKETT*  CLOUDY    38  37  98 SW5       30.03S
CHASE CITY*    MOCLDY    38  38 100 CALM      30.02F
CLARKSVILLE*     N/A     36  36 100 CALM      30.02F
SOUTH HILL*    CLOUDY    37  37  98 CALM      30.09F
LAWRENCEVILLE* CLOUDY    38  38  99 CALM      30.05S
$$

VAZ088>098-270500-
SOUTHEAST VIRGINIA

CITY           SKY/WX    TMP DP  RH WIND       PRES   REMARKS
NORFOLK        CLOUDY    41  35  79 VRB6      30.04R
VIRGINIA BEACH CLOUDY    42  37  82 W12       30.03R
NORFOLK NAVAL  CLOUDY    43  37  79 W10       30.06R
WEST POINT*    CLOUDY    41  37  85 W8        30.06S
SALUDA*        CLOUDY    38  35  89 W6        30.03R
NEWPORT NEWS   CLOUDY    43  36  76 NW10      30.04S
LANGLEY AFB    CLOUDY    40  40 100 W10       30.05R
FORT EUSTIS    CLOUDY    40  40 100 W9        30.03R
WILLIAMSBURG*  CLOUDY    41  39  93 NW7       30.05F
HR EXEC AP*    CLOUDY    39  36  87 NW5       30.07S
FRANKLIN*      PTCLDY    37  36  93 W3        30.06S
WAKEFIELD      CLOUDY    39  36  89 W3        30.05S
$$

VAZ020-022-025-037-045-270500-
WEST CENTRAL AND SOUTHWEST VIRGINIA

CITY           SKY/WX    TMP DP  RH WIND       PRES   REMARKS
STAUNTON*      FOG       33  32  96 CALM      30.01S VSB 1/2
WAYNESBORO*    CLOUDY    30  30  99 CALM      29.99S VSB 1/4
HOT SPRINGS VA   N/A    N/A N/A N/A MISG        N/A
LYNCHBURG      MOCLDY    36  36 100 W3        30.02S
DANVILLE       FOG       35  33  92 CALM      30.04S VSB 1
SOUTH BOSTON*  MOCLDY    37  36  95 SW3       30.03S
MARTINSVILLE   FOG       35  35 100 CALM      30.05R VSB 1/4
ROANOKE        CLOUDY    35  33  92 N6        30.01F
BLACKSBURG     MOCLDY    34  34 100 CALM      29.99F FOG
DUBLIN*        CLOUDY    34  34 100 W3        29.99S FOG
MARION*        FOG       33  32  96 CALM      29.99S VSB 1/4
HILLSVILLE*    CLOUDY    32  32  99 S3        29.95F FOG
RICHLANDS*     CLOUDY    38  34  87 CALM      29.96S
WISE*          CLOUDY    36  30  80 CALM      29.97S
ABINGDON*      CLOUDY    35  35  99 CALM      29.98S FOG
$$

MDZ021>025-VAZ099-100-270500-
SOUTHERN MARYLAND AND THE DELMARVA PENINSULA

CITY           SKY/WX    TMP DP  RH WIND       PRES   REMARKS
PATUXENT RIVER CLOUDY    38  34  85 W13       30.01R
BAY BRIDGE APT   N/A     37  34  87 W10       29.99R
LEONARDTOWN    CLOUDY    36  34  93 W10       30.02R
DOVER          CLOUDY    37  36  97 W8        29.92R
GEORGETOWN     CLOUDY    38  34  85 VRB7      29.96R
EASTON         MOCLDY    40  40 100 NW8       30.01R
CAMBRIDGE      MOCLDY    41  36  81 NW8G16    29.98R
SALISBURY      CLOUDY    41  35  79 W9        29.97R
OCEAN CITY     CLOUDY    38  36  92 NW9       29.95R
WALLOPS ISLAND CLOUDY    39  37  92 NW9       29.98R
ACCOMACK*      CLOUDY    41  36  81 NW14      30.00R
$$

NCZ012>017-030>032-270500-
NORTH CENTRAL AND EASTERN NORTH CAROLINA

CITY           SKY/WX    TMP DP  RH WIND       PRES   REMARKS
ROANOKE RAPIDS CLOUDY    34  34 100 CALM      30.05F
RALEIGH        PTCLDY    37  36  93 CALM      30.07R
ELIZABETH CITY CLOUDY    43  37  79 W12       30.05S
AHOSKIE*       CLEAR     36  35  95 CALM      30.07F
EDENTON*       CLOUDY    41  38  87 NW6       30.07S
CURRITUCK*     CLOUDY    41  37  88 W9        30.05S
KILL DEVIL HLS CLOUDY    42  39  89 NW10G17   30.04R
MANTEO         CLOUDY    42  38  87 NW10G17   30.05R
CAPE HATTERAS  CLOUDY    43  40  89 NW14G20   30.06R
TARBORO*       CLOUDY    37  37  97 CALM      30.08F
GOLDSBORO      CLEAR     38  38  98 CALM      30.08R
WASHINGTON     CLOUDY    41  37  84 NW3       30.09R
GREENVILLE     CLEAR     37  36  93 CALM      30.10S
NEW BERN       CLOUDY    45  38  76 N7        30.10R
WILMINGTON     CLEAR     42  41  96 CALM      30.12R
$$

VAZ048-270500-
ELSEWHERE

CITY           SKY/WX    TMP DP  RH WIND       PRES   REMARKS
HARRISBURG PA  CLOUDY    34  30  85 NW12      29.96R
BALTIMORE      DRIZZLE   36  32  85 NW6       29.98R
ANNAPOLIS      CLOUDY    38  33  82 NW7       29.99R
ANDREWS AFB    CLOUDY    37  34  89 W10       30.00R
PHILADELPHIA   CLOUDY    37  31  78 NW12      29.90R
WILDWOOD NJ*   CLOUDY    37  32  81 NW10      29.90R
HENDERSON NC   CLEAR     37  36  94 SW5       30.04R FOG
GREENSBORO     LGT RAIN  40  38  93 SW5       30.03R
ROCKY MOUNT    CLEAR     35  33  92 CALM      30.07S
$$

VAZ100-270500-
MARINE

STATION/POSITION TIME  TEMP    WIND        PRES    WAVE   SWELL
                       AIR SEA DIR/SP/G            HT/PER HT/PER
                 (UTC) (F)     (DEG/KT/KT) (MB)    (FT/S) (FT/S)
CAPE MAY NJ      0400   39 50  320/  6/ 13 1012.7R
LEWES DE         0400   39 48  300/ 18/ 21 1013.5R
15NM E FENWICK I 0400   43 54              1012.1R  11/10
OCEAN-CITY-INLET 0400   40 49  320/ 12/ 16 1013.6R
WACHAPREAGUE VA  0400   41 49  280/  3/  5 1015.8R
THOMAS POINT MD  0400   38 47  290/ 14/ 16 1016.6R
GOOSES REEF MD   0400   39 49  310/ 16/ 21 1016.1R   2/ 3
COVE POINT MD    0400   37     310/ 12/ 16 1015.6R
SOLOMONS ISLAND  0400      49                N/A
BISHOPS HEAD MD  0400   40 44  310/ 15/ 18 1015.1R
PINEY POINT MD   0400          320/ 22/ 25   N/A
POTOMAC MD       0400   42 49  320/ 17/ 21 1015.6R   2/ 3
CAMBRIDGE MD     0400   39 45  290/ 11/ 15 1015.1R
LEWISETTA VA     0400   38 48  290/ 10/ 13 1016.5R
RAPPAHANNOCK LGT 0400          290/ 19/ 20 1016.7R
STINGRAY PT      0400   41 49  300/ 17/ 21 1016.9R   2/ 3
YORK RVR RNG VA  0400   40     300/ 16/ 20 1016.2F
YORKTOWN VA      0400   39 51  280/ 11/ 14 1016.9R
JAMESTOWN VA     0400   40 50  320/ 14/ 16   N/A     0
DOMINION TERM VA 0400   41     300/ 17/ 20 1017.0S
KIPTOPEKE VA     0400      54  310/ 17/ 20   N/A
CHES BAY BRIDGE  0400   41 51  280/ 16/ 20 1016.5S
CAPE HENRY VA    0400   41     280/ 15/ 18 1015.5F
CHESAPEAKE LGHT  0300   44     320/ 22/ 25 1016.0R
WILLOUBY STN VA  0400   41     300/ 16/ 17 1015.8S
S CRANEY ISL VA  0400          260/  9/ 13 1017.3R
CAPE HENRY BUOY  0300      56                N/A     7/ 9   2/11
1ST LANDING BUOY 0400   42 52  290/ 17/ 21 1016.4R   3/ 4
CAPE CHARLES BUO 0400      55                N/A     5/ 9   3/ 9
64NM E OF VA BCH 0400   49 62  320/ 21/ 25 1014.0R  11/ 9   3/15
DUCK PIER NC     0400   42 56  300/ 15/ 18 1016.4R
44100 DUCK FRF   0400      59                N/A     8/ 9   2/11
44056 DUCK FRF   0400      57                N/A     6/ 9   2/11
OREGON INLET NC  0400   43 57  300/ 11/ 16 1017.1R
HATTERAS NC      0400   45 61  310/ 18/ 20 1018.2R
DIAMOND SHLS NC  0400   48     290/ 17/ 23 1017.4R  10/ 8
CAPE LOOKOUT NC  0300   46     310/ 12/ 16 1018.3R


USA.gov is the U.S. government's official web portal to all federal, state and local government web resources and services.